星链-1936 (STARLINK-1936 )

导读 | 豆包AI

STARLINK-1936是美国太空探索技术公司(SpaceX)星链(Starlink)星座中的卫星,于2020年10月24日发射升空,属于星链项目的组网卫星,主要用于为全球提供高速互联网接入服务,尤其覆盖偏远地区等网络基础设施匮乏区域,推动全球互联互通。

基本信息
目录编号:
46772
目录名称:
STARLINK-1936
国际标识:
2020-074AK
轨道中心:
EARTH
卫星名称:
星链-1936
卫星全名:
星链-1936 (STARLINK-1936 )
卫星状态:
已陨落 最后检测时间 2025-01-30
发射日期:
2020-10-24 UTC
国别 :
美国 (US)
星等 :
--
轨道信息
数据来源 国际轨道数据
星历时间: 2025-01-30T12:27:19+0800
轨道信息已过期408天
半长轴: 6533.503km
偏心率: 0.0007145
轨道倾角: 53.033°
近地点辐角 221.798°
升交点赤经 317.316°
平近点角 252.023°
近地点: 150.699km
远地点: 160.037km
周期: 87.595分钟
每日圈数: 16.439312
详细信息
固有亮度:
5
最大亮度:
2.5
卫星平台:
Starlink V1.0
覆盖范围:
全球
运营商:
太空探索技术公司
运营商所在国:
美国
制造商(研发单位):
太空探索技术公司
制造商所在国:
美国
使用方式:
暂无
卫星简介
星链(Starlink)计划是由太空探索技术公司(SpaceX)提出的一个巨型低轨卫星互联网星座项目,计划在2019年至2024年间在太空搭建由约1.2万颗卫星组成的“星链”网络,其中1584颗将部署在地球上空550千米处的近地轨道,并从2020年开始工作。该卫星仍在工作。